Location: Fernhill
(41.0167°S, 175.6333°E)
Time: 16:33:28
(UTC+00:00)

Cosmos 1833 Rocket - Pass Details

Date: 15 February 2026
Orbit: 832 x 837 km, 71.0° (Epoch: 8 March)

Event Time Altitude Azimuth Distance (km) Brightness Sun altitude
Exits shadow 12:05:02 13° 121° (ESE) 2,269 5.1 -36.1°
Drops below altitude 10° 12:05:49 10° 127° (SE) 2,471 5.4 -36.1°
Sets 12:08:50 0° 142° (SE) 3,415 6.4 -36.2°
